TimeEDT,TemperatureF,Dew PointF,Humidity,Sea Level PressureIn,VisibilityMPH,Wind Direction,Wind SpeedMPH,Gust SpeedMPH,PrecipitationIn,Events,Conditions,WindDirDegrees,DateUTC
12:10 AM,64.4,-9999,N/A,30.01,0.2,Calm,Calm,-,N/A,Fog,Fog,0,2013-08-29 04:10:00
12:30 AM,64.4,-9999,N/A,30.01,0.2,North,3.5,-,N/A,Fog,Fog,10,2013-08-29 04:30:00
12:50 AM,64.4,-9999,N/A,30.02,0.2,Calm,Calm,-,N/A,Fog,Fog,0,2013-08-29 04:50:00
1:10 AM,64.4,-9999,N/A,30.02,0.2,Calm,Calm,-,N/A,Fog,Fog,0,2013-08-29 05:10:00
1:30 AM,64.4,-9999,N/A,30.01,0.2,North,3.5,-,N/A,Fog,Fog,360,2013-08-29 05:30:00
1:50 AM,64.4,-9999,N/A,30.01,0.2,North,3.5,-,N/A,Fog,Fog,350,2013-08-29 05:50:00
2:10 AM,64.4,-9999,N/A,30.01,0.2,Calm,Calm,-,N/A,Fog,Fog,0,2013-08-29 06:10:00
2:30 AM,64.4,-9999,N/A,30.01,1.2,North,3.5,-,N/A,,Mostly Cloudy,350,2013-08-29 06:30:00
2:50 AM,64.4,-9999,N/A,30.02,0.2,North,3.5,-,N/A,Fog,Fog,360,2013-08-29 06:50:00
3:10 AM,64.4,-9999,N/A,30.02,0.2,North,3.5,-,N/A,Fog,Fog,10,2013-08-29 07:10:00
3:30 AM,64.4,-9999,N/A,30.02,0.2,North,3.5,-,N/A,Fog,Fog,10,2013-08-29 07:30:00
3:50 AM,64.4,-9999,N/A,30.02,0.2,Calm,Calm,-,N/A,Fog,Fog,0,2013-08-29 07:50:00
4:10 AM,64.4,-9999,N/A,30.02,0.5,Calm,Calm,-,N/A,Fog,Fog,0,2013-08-29 08:10:00
4:30 AM,64.4,-9999,N/A,30.03,2.0,NNE,4.6,-,N/A,,Overcast,30,2013-08-29 08:30:00
4:50 AM,62.6,-9999,N/A,30.03,4.0,Calm,Calm,-,N/A,,Haze,0,2013-08-29 08:50:00
5:10 AM,62.6,-9999,N/A,30.04,3.0,Calm,Calm,-,N/A,,Overcast,0,2013-08-29 09:10:00
5:30 AM,62.6,-9999,N/A,30.04,5.0,Calm,Calm,-,N/A,,Haze,0,2013-08-29 09:30:00
5:50 AM,62.6,-9999,N/A,30.05,2.0,NNE,3.5,-,N/A,,Overcast,30,2013-08-29 09:50:00
6:10 AM,62.6,-9999,N/A,30.05,1.5,Calm,Calm,-,N/A,,Overcast,0,2013-08-29 10:10:00
6:30 AM,62.6,-9999,N/A,30.05,2.5,Calm,Calm,-,N/A,,Overcast,0,2013-08-29 10:30:00
6:50 AM,62.6,-9999,N/A,30.06,1.5,Calm,Calm,-,N/A,,Overcast,0,2013-08-29 10:50:00
7:10 AM,62.6,-9999,N/A,30.07,1.5,Calm,Calm,-,N/A,,Overcast,0,2013-08-29 11:10:00
7:30 AM,62.6,-9999,N/A,30.08,1.8,East,3.5,-,N/A,,Overcast,90,2013-08-29 11:30:00
7:50 AM,62.6,-9999,N/A,30.09,2.5,East,4.6,-,N/A,,Overcast,90,2013-08-29 11:50:00
8:10 AM,62.6,-9999,N/A,30.10,2.0,NE,3.5,-,N/A,,Overcast,50,2013-08-29 12:10:00
8:30 AM,62.6,-9999,N/A,30.10,2.5,Calm,Calm,-,N/A,,Overcast,0,2013-08-29 12:30:00
8:50 AM,64.4,-9999,N/A,30.10,2.5,East,3.5,-,N/A,,Overcast,100,2013-08-29 12:50:00
9:10 AM,66.2,-9999,N/A,30.10,4.0,East,5.8,-,N/A,,Haze,90,2013-08-29 13:10:00
9:30 AM,64.4,-9999,N/A,30.11,5.0,East,4.6,-,N/A,,Haze,80,2013-08-29 13:30:00
9:50 AM,64.4,-9999,N/A,30.11,4.0,East,4.6,-,N/A,,Haze,90,2013-08-29 13:50:00
10:10 AM,66.2,66.2,100,30.11,5.0,East,4.6,-,N/A,,Overcast,100,2013-08-29 14:10:00
10:30 AM,66.2,66.2,100,30.12,5.0,Calm,Calm,-,N/A,,Overcast,0,2013-08-29 14:30:00
10:50 AM,68.0,68.0,100,30.12,10.0,East,3.5,-,N/A,,Overcast,80,2013-08-29 14:50:00
11:10 AM,69.8,68.0,94,30.12,10.0,ESE,4.6,-,N/A,,Overcast,110,2013-08-29 15:10:00
11:30 AM,69.8,66.2,88,30.13,10.0,Calm,Calm,-,N/A,,Overcast,0,2013-08-29 15:30:00
11:50 AM,71.6,68.0,88,30.13,10.0,East,3.5,-,N/A,,Mostly Cloudy,90,2013-08-29 15:50:00
12:10 PM,71.6,66.2,83,30.13,10.0,NNE,5.8,-,N/A,,Scattered Clouds,20,2013-08-29 16:10:00
12:30 PM,69.8,64.4,83,30.13,10.0,Calm,Calm,-,N/A,,Mostly Cloudy,0,2013-08-29 16:30:00
12:50 PM,73.4,64.4,73,30.13,10.0,Calm,Calm,-,N/A,,Scattered Clouds,0,2013-08-29 16:50:00
1:10 PM,73.4,66.2,78,30.13,10.0,East,5.8,-,N/A,,Scattered Clouds,90,2013-08-29 17:10:00
1:30 PM,73.4,64.4,73,30.13,10.0,ENE,3.5,-,N/A,,Mostly Cloudy,70,2013-08-29 17:30:00
1:50 PM,73.4,64.4,73,30.13,10.0,East,5.8,-,N/A,,Mostly Cloudy,90,2013-08-29 17:50:00
2:10 PM,73.4,64.4,73,30.13,10.0,Calm,Calm,-,N/A,,Mostly Cloudy,0,2013-08-29 18:10:00
2:30 PM,75.2,66.2,73,30.13,10.0,ESE,8.1,-,N/A,,Mostly Cloudy,110,2013-08-29 18:30:00
2:50 PM,77.0,64.4,65,30.12,10.0,East,4.6,-,N/A,,Scattered Clouds,90,2013-08-29 18:50:00
3:10 PM,73.4,66.2,78,30.12,10.0,SE,3.5,-,N/A,,Clear,130,2013-08-29 19:10:00
3:30 PM,77.0,62.6,61,30.12,10.0,ESE,4.6,-,N/A,,Scattered Clouds,120,2013-08-29 19:30:00
3:50 PM,77.0,64.4,65,30.12,10.0,ENE,3.5,-,N/A,,Mostly Cloudy,70,2013-08-29 19:50:00
4:10 PM,73.4,64.4,73,30.12,10.0,East,3.5,-,N/A,,Scattered Clouds,80,2013-08-29 20:10:00
4:30 PM,77.0,64.4,65,30.12,10.0,Calm,Calm,-,N/A,,Clear,0,2013-08-29 20:30:00
4:50 PM,77.0,64.4,65,30.12,10.0,East,4.6,-,N/A,,Scattered Clouds,80,2013-08-29 20:50:00
5:10 PM,75.2,64.4,69,30.12,10.0,East,3.5,-,N/A,,Scattered Clouds,80,2013-08-29 21:10:00
5:30 PM,73.4,66.2,78,30.13,10.0,ESE,6.9,-,N/A,,Clear,110,2013-08-29 21:30:00
5:50 PM,71.6,66.2,83,30.13,10.0,ESE,3.5,-,N/A,,Scattered Clouds,110,2013-08-29 21:50:00
6:10 PM,73.4,66.2,78,30.13,10.0,East,5.8,-,N/A,,Clear,100,2013-08-29 22:10:00
6:30 PM,73.4,66.2,78,30.13,10.0,ESE,5.8,-,N/A,,Clear,120,2013-08-29 22:30:00
6:50 PM,71.6,66.2,83,30.13,10.0,ESE,4.6,-,N/A,,Clear,120,2013-08-29 22:50:00
7:10 PM,71.6,68.0,88,30.13,10.0,ESE,5.8,-,N/A,,Clear,110,2013-08-29 23:10:00
7:30 PM,69.8,68.0,94,30.13,10.0,ESE,4.6,-,N/A,,Clear,120,2013-08-29 23:30:00
7:50 PM,68.0,68.0,100,30.13,10.0,ESE,5.8,-,N/A,,Clear,110,2013-08-29 23:50:00
8:10 PM,68.0,66.2,94,30.13,10.0,ESE,4.6,-,N/A,,Clear,120,2013-08-30 00:10:00
8:30 PM,68.0,68.0,100,30.13,10.0,ESE,5.8,-,N/A,,Clear,120,2013-08-30 00:30:00
8:50 PM,68.0,66.2,94,30.14,10.0,ESE,5.8,-,N/A,,Clear,120,2013-08-30 00:50:00
9:10 PM,66.2,66.2,100,30.14,10.0,ESE,5.8,-,N/A,,Clear,120,2013-08-30 01:10:00
9:30 PM,66.2,66.2,100,30.14,10.0,SE,4.6,-,N/A,,Clear,130,2013-08-30 01:30:00
9:50 PM,64.4,64.4,100,30.15,10.0,SE,3.5,-,N/A,,Clear,130,2013-08-30 01:50:00
10:10 PM,64.4,64.4,100,30.15,10.0,SE,4.6,-,N/A,,Clear,130,2013-08-30 02:10:00
10:30 PM,64.4,64.4,100,30.15,10.0,ESE,3.5,-,N/A,,Clear,120,2013-08-30 02:30:00
10:50 PM,64.4,64.4,100,30.15,10.0,SE,3.5,-,N/A,,Clear,130,2013-08-30 02:50:00
11:10 PM,64.4,64.4,100,30.14,10.0,SE,4.6,-,N/A,,Clear,130,2013-08-30 03:10:00
11:30 PM,64.4,64.4,100,30.14,10.0,SE,5.8,-,N/A,,Clear,130,2013-08-30 03:30:00
11:50 PM,64.4,64.4,100,30.14,10.0,SE,5.8,-,N/A,,Clear,140,2013-08-30 03:50:00